Regional Weather Roundup
Issued by NWS

Home | Current Version | Previous Version | Graphics & Text | Print | Product List | Glossary On
Versions: 1 2 3 4 5 6 7 8 9 10 11 12 13 14 15 16 17 18 19 20 21 22 23 24 25 26 27 28 29 30 31 32 33 34 35 36 37 38 39 40 41 42 43 44 45 46 47 48 49 50
000
ASUS45 KCYS 272110
RWRWY

WYOMING REGIONAL WEATHER ROUNDUP
NATIONAL WEATHER SERVICE CHEYENNE WY
300 PM MDT SUN JUL 27 2014

NOTE:  "FAIR" INDICATES FEW OR NO CLOUDS BELOW 12,000 FEET
WITH NO SIGNIFICANT WEATHER AND/OR OBSTRUCTIONS TO VISIBILITY.

WYZ001-272200-
YELLOWSTONE NATIONAL PARK

CITY           SKY/WX    TMP DP  RH WIND       PRES   REMARKS
LK YELLOWSTONE   N/A     74  45  35 VRB6      30.49F
W YELLOWSTONE  NOT AVBL

$$
WYZ002>013-054>058-071-098>099-272200-
NORTHERN WYOMING

CITY           SKY/WX    TMP DP  RH WIND       PRES   REMARKS
JACKSON        NOT AVBL
CODY           NOT AVBL
GREYBULL       SUNNY     89  32  13 NE5       30.24F
WORLAND        SUNNY     88  32  13 N6        30.25F
SHERIDAN       SUNNY     86  41  20 NE7       30.29F
BUFFALO        SUNNY     82  36  19 VRB5      30.35F
GILLETTE       SUNNY     82  39  21 CALM      30.32F
HULETT         FAIR      77  45  31 MISG      30.34
NEWCASTLE      FAIR      82  32  16 N7        30.31

$$
WYZ014>020-022>026-101>103-272200-
CENTRAL WYOMING

CITY           SKY/WX    TMP DP  RH WIND       PRES   REMARKS
BIG PINEY      MOSUNNY   86  20   9 NE7       30.42F
PINEDALE       PTCLDY    81  21  11 N9        30.44F
DUBOIS         FAIR      79  23  12 SE12      30.43F
LANDER         SUNNY     83  32  16 CALM      30.33F
RIVERTON       SUNNY     85  30  13 NE12G21   30.33F
CASPER         SUNNY     85  42  22 NE9       30.33F
DOUGLAS        SUNNY     84  47  27 VRB5      30.34F

$$
WYZ021-027>030-104>119-272200-
SOUTHERN WYOMING

CITY           SKY/WX    TMP DP  RH WIND       PRES   REMARKS
EVANSTON       PTSUNNY   87  26  11 MISG      30.40F
KEMMERER       PTCLDY   N/A N/A N/A E3        30.43F
ROCK SPRINGS   SUNNY     85  30  13 VRB5      30.39F
DIXON          FAIR      88  27  11 SW6       30.38F
RAWLINS        SUNNY     84  34  16 SE8       30.39F
SARATOGA       FAIR      81  30  16 NW3       30.41F
LARAMIE        SUNNY     77  52  41 S17       30.43F
CHEYENNE       MOSUNNY   78  55  44 S9G16     30.40F
TORRINGTON     SUNNY     84  50  30 CALM      30.30F
PINE BLUFFS    MOCLDY    81  48  32 E7        30.36S

$$


USA.gov is the U.S. government's official web portal to all federal, state and local government web resources and services.